Location: Hradec Kralove
(50.2170°N, 15.8330°E)
Time: 11:09:55
(UTC+01:00)

ISS - Pass Details

Date: 25 February 2026
Orbit: 416 x 426 km, 51.6° (Epoch: 10 March)

Event Time Altitude Azimuth Distance (km) Brightness Sun altitude
Exits shadow 04:19:07 36° 68° (ENE) 675 -2.2 -24.5°
Drops below altitude 10° 04:21:17 10° 81° (E) 1,495 0.1 -24.2°
Sets 04:23:24 0° 84° (E) 2,358 1.4 -23.9°
